Charlottesville, VA

5:24 PM EST on December 03, 2016 (GMT -0500)
Charlottesville-Albemarle

Weather History for KCHO - July, 2013

Change the Weather History Date:

Saturday, July 6, 2013

  Actual Average Record
Temperature  
Mean Temperature 79 °F 76 °F  
Max Temperature 88 °F 87 °F 100 °F (1925)
Min Temperature 70 °F 65 °F 54 °F (1979)
Degree Days  
Heating Degree Days 0 0  
Month to date heating degree days 0 0  
Since 1 June heating degree days 2 11  
Since 1 July heating degree days 0 0  
Cooling Degree Days 14 11  
Month to date cooling degree days 75 61  
Year to date cooling degree days 468 366  
Since 1 June cooling degree days 321 280  
Growing Degree Days 29 (Base 50)    
Moisture  
Dew Point 70 °F    
Average Humidity 76    
Maximum Humidity 100    
Minimum Humidity 51    
Precipitation  
Precipitation 0.00 in 0.12 in 0.93 in (2003)
Month to date precipitation 1.60 0.79  
Year to date precipitation 25.29 20.99  
Sea Level Pressure  
Sea Level Pressure 30.16 in    
Wind  
Wind Speed 7 mph (SSW)    
Max Wind Speed 16 mph    
Max Gust Speed 21 mph    
Visibility 9 miles    
Events Rain    
T = Trace of Precipitation, MM = Missing Value Source: NWS Daily Summary

Daily Weather History Graph

Daily Weather History Graph

Search for Another Location

Airport or City:

Trip Planner

Search our weather history database for the weather conditions in past years. The results will help you decide how hot, cold, wet, or windy it might be!

Date:

Astronomy

Jul. 06, 2013 Rise Set
Actual Time 5:57 AM EDT 8:39 PM EDT
Civil Twilight 5:26 AM EDT 9:10 PM EDT
Nautical Twilight 4:47 AM EDT 9:49 PM EDT
Astronomical Twilight 4:03 AM EDT 10:33 PM EDT
Moon 4:40 AM EDT (7/6) 7:20 PM EDT (7/6)
Length of Visible Light 15h 44m
Length of Day
14h 42m
Waning Crescent, 2% of the Moon is Illuminated
Jul 6
Waning Crescent
Jul 8
New
Jul 15
First Quarter
Jul 22
Full
Jul 29
Last Quarter

Hourly Weather History & Observations

Time (EDT) Temp. Heat Index Dew Point Humidity Pressure Visibility Wind Dir Wind Speed Gust Speed Precip Events Conditions
12:53 AM 75.0 °F - 71.1 °F 87% 30.19 in 10.0 mi Calm Calm - 0.00 in Rain Rain
1:53 AM 75.0 °F - 71.1 °F 87% 30.17 in 10.0 mi Calm Calm - 0.00 in Rain Rain
2:53 AM 73.9 °F - 71.1 °F 91% 30.17 in 10.0 mi Calm Calm - 0.00 in Rain Rain
3:53 AM 73.9 °F - 71.1 °F 91% 30.17 in 10.0 mi SSW 5.8 mph - 0.00 in Rain Rain
4:53 AM 72.0 °F - 71.1 °F 97% 30.18 in 10.0 mi SSW 4.6 mph - 0.00 in Rain Rain
5:53 AM 70.0 °F - 69.1 °F 97% 30.19 in 6.0 mi SSW 4.6 mph - 0.00 in Rain Rain
6:16 AM 71.6 °F - 69.8 °F 94% 30.21 in 8.0 mi SW 5.8 mph - 0.00 in   Scattered Clouds
6:53 AM 72.0 °F - 71.1 °F 97% 30.20 in 7.0 mi SW 5.8 mph - 0.00 in   Scattered Clouds
7:00 AM 71.6 °F - 71.6 °F 100% 30.22 in 3.0 mi Calm Calm - N/A   Mostly Cloudy
7:19 AM 73.4 °F - 71.6 °F 94% 30.22 in 9.0 mi South 4.6 mph - N/A   Scattered Clouds
7:53 AM 75.0 °F - 72.0 °F 90% 30.20 in 10.0 mi South 5.8 mph - N/A   Clear
8:53 AM 79.0 °F - 72.0 °F 79% 30.20 in 10.0 mi Variable 5.8 mph - N/A   Clear
9:53 AM 81.0 °F 85.8 °F 73.0 °F 77% 30.20 in 10.0 mi South 5.8 mph - N/A   Clear
10:53 AM 82.9 °F 87.5 °F 71.1 °F 67% 30.20 in 10.0 mi South 10.4 mph - N/A   Scattered Clouds
11:53 AM 84.0 °F 89.0 °F 71.1 °F 65% 30.19 in 10.0 mi South 8.1 mph - N/A   Scattered Clouds
12:53 PM 86.0 °F 91.5 °F 71.1 °F 61% 30.18 in 10.0 mi South 10.4 mph - N/A   Scattered Clouds
1:53 PM 84.9 °F 89.4 °F 70.0 °F 61% 30.16 in 10.0 mi SW 8.1 mph - N/A   Scattered Clouds
2:53 PM 87.1 °F 92.8 °F 71.1 °F 59% 30.14 in 10.0 mi SW 9.2 mph 17.3 mph N/A   Scattered Clouds
3:53 PM 88.0 °F 93.8 °F 71.1 °F 57% 30.13 in 10.0 mi South 12.7 mph - N/A   Scattered Clouds
4:53 PM 86.0 °F 89.4 °F 68.0 °F 55% 30.12 in 10.0 mi SSW 13.8 mph - N/A   Partly Cloudy
5:53 PM 86.0 °F 88.8 °F 66.9 °F 53% 30.10 in 10.0 mi SSW 9.2 mph - N/A   Clear
6:53 PM 84.0 °F 86.3 °F 66.0 °F 55% 30.09 in 10.0 mi SSW 13.8 mph - N/A   Clear
7:53 PM 82.0 °F 85.5 °F 69.1 °F 65% 30.10 in 10.0 mi South 10.4 mph - N/A   Clear
8:53 PM 77.0 °F - 69.1 °F 76% 30.11 in 10.0 mi SSW 6.9 mph - N/A   Clear
9:53 PM 78.1 °F - 69.1 °F 74% 30.13 in 10.0 mi SSW 5.8 mph - N/A   Clear
10:53 PM 77.0 °F - 70.0 °F 79% 30.14 in 10.0 mi SW 3.5 mph - N/A   Clear
11:53 PM 75.9 °F - 69.1 °F 79% 30.14 in 10.0 mi SW 3.5 mph - N/A   Clear